カタログに戻る

STARLINK-34850

運用中通信VLEO
NORAD 65460·PAYLOAD·🇺🇸 United States

打ち上げ Sep 3, 2025 から Cape Canaveral Space Force Station

Loading…

次のパス (今後24時間)

TLE

最新Source: CelesTrak SupGP

元期: Sep 15, 2026, 03:06 UTC

1 65460C 25195C   26258.12965278 -.00009254  00000+0 -27347-3 0  2581
2 65460  53.1577  94.6262 0001262  86.8799 104.2059 15.34387114    17

AllMySatでSTARLINK-34850をリアルタイム追跡

Download on the App Store